,,Stat5,,Stat1,,Stat2,,Stat3,,Stat4,,Wind1,,Wind1,
time,status,PA1M_AVG,status,PR1M_SUM,status,RH1M_AVG,status,SR1M_AVG,status,TA1M_AVG,status,W1dAve1m,status,W1sAve1m,
2001-04-26, 00:00:00,VALID,916.835,VALID,0,VALID,98.9881,VALID,0,VALID,20.5561,VALID,99,VALID,0.310113,
2001-04-26, 00:01:00,VALID,916.835,VALID,0,VALID,98.9931,VALID,0,VALID,20.5596,VALID,103,VALID,0.446652,
2001-04-26, 00:02:00,VALID,916.825,VALID,0,VALID,98.9893,VALID,-0.0169808,VALID,20.5618,VALID,105,VALID,0.671453,
2001-04-26, 00:03:00,VALID,916.828,VALID,0,VALID,99.002,VALID,-0.0509425,VALID,20.5588,VALID,102,VALID,0.590666,
2001-04-26, 00:04:00,VALID,916.828,VALID,0,VALID,98.9842,VALID,0,VALID,20.5529,VALID,108,VALID,0.574113,
2001-04-26, 00:05:00,VALID,916.834,VALID,0,VALID,98.9766,VALID,-0.0339617,VALID,20.5497,VALID,105,VALID,0.747889,
2001-04-26, 00:06:00,VALID,916.835,VALID,0,VALID,99.0109,VALID,-0.0509425,VALID,20.582,VALID,98,VALID,0.720358,
2001-04-26, 00:07:00,VALID,916.84,VALID,0,VALID,98.9715,VALID,-0.0339617,VALID,20.5529,VALID,96,VALID,0.627745,
2001-04-26, 00:08:00,VALID,916.837,VALID,0,VALID,98.9537,VALID,-0.0509425,VALID,20.5206,VALID,103,VALID,0.823568,
2001-04-26, 00:09:00,VALID,916.841,VALID,0,VALID,98.9423,VALID,-0.0169808,VALID,20.5039,VALID,97,VALID,0.781672,
2001-04-26, 00:10:00,VALID,916.834,VALID,0,VALID,98.9639,VALID,-0.0169808,VALID,20.5077,VALID,103,VALID,0.433699,
2001-04-26, 00:11:00,VALID,916.835,VALID,0,VALID,98.9029,VALID,-0.0169808,VALID,20.4463,VALID,45,VALID,0.246875,
2001-04-26, 00:12:00,VALID,916.836,VALID,0,VALID,98.852,VALID,0,VALID,20.3851,VALID,52,VALID,0.188502,
2001-04-26, 00:13:00,VALID,916.821,VALID,0,VALID,98.8634,VALID,0,VALID,20.3782,VALID,84,VALID,0.314648,
2001-04-26, 00:14:00,VALID,916.813,VALID,0,VALID,98.8952,VALID,0,VALID,20.3879,VALID,80,VALID,0.224507,
2001-04-26, 00:15:00,VALID,916.79,VALID,0,VALID,98.8749,VALID,-0.0169808,VALID,20.3784,VALID,91,VALID,0.757813,
2001-04-26, 00:16:00,VALID,916.771,VALID,0,VALID,98.8711,VALID,-0.0169808,VALID,20.3424,VALID,76,VALID,1.32612,
2001-04-26, 00:17:00,VALID,916.752,VALID,0,VALID,98.8291,VALID,0,VALID,20.2971,VALID,32,VALID,0.961914,
2001-04-26, 00:18:00,VALID,916.743,VALID,0,VALID,98.8062,VALID,-0.0169808,VALID,20.2616,VALID,17,VALID,0.596012,
2001-04-26, 00:19:00,VALID,916.718,VALID,0,VALID,98.8304,VALID,0,VALID,20.2554,VALID,39,VALID,0.111133,
2001-04-26, 00:20:00,VALID,916.699,VALID,0,VALID,98.8787,VALID,-0.0339617,VALID,20.2713,VALID,97,VALID,0.407652,
2001-04-26, 00:21:00,VALID,916.693,VALID,0,VALID,98.9448,VALID,0.0169808,VALID,20.3493,VALID,98,VALID,0.498437,
2001-04-26, 00:22:00,VALID,916.682,VALID,0,VALID,98.969,VALID,0.0169808,VALID,20.3515,VALID,102,VALID,0.763158,
2001-04-26, 00:23:00,VALID,916.673,VALID,0,VALID,98.9817,VALID,0.0339617,VALID,20.3901,VALID,102,VALID,0.934961,
2001-04-26, 00:24:00,VALID,916.658,VALID,0,VALID,98.9906,VALID,0.101885,VALID,20.4189,VALID,104,VALID,0.797476,
2001-04-26, 00:25:00,VALID,916.658,VALID,0,VALID,98.9995,VALID,0.0849042,VALID,20.448,VALID,83,VALID,0.718164,
2001-04-26, 00:26:00,VALID,916.653,VALID,0,VALID,98.9982,VALID,0.0509425,VALID,20.4547,VALID,109,VALID,0.290707,
2001-04-26, 00:27:00,VALID,916.656,VALID,0,VALID,98.997,VALID,0.0679233,VALID,20.4447,VALID,109,VALID,0.554883,
2001-04-26, 00:28:00,VALID,916.673,VALID,0,VALID,98.9944,VALID,0.0849042,VALID,20.4611,VALID,108,VALID,0.516026,
2001-04-26, 00:29:00,VALID,916.676,VALID,0,VALID,98.969,VALID,0.0679233,VALID,20.4288,VALID,113,VALID,0.672852,
2001-04-26, 00:30:00,VALID,916.689,VALID,0.2,VALID,98.9537,VALID,0.0849042,VALID,20.4025,VALID,96,VALID,0.774465,
2001-04-26, 00:31:00,VALID,916.686,VALID,0,VALID,98.9728,VALID,0.101885,VALID,20.4221,VALID,102,VALID,0.48418,
2001-04-26, 00:32:00,VALID,916.694,VALID,0,VALID,98.9626,VALID,0.101885,VALID,20.4027,VALID,104,VALID,0.978566,
2001-04-26, 00:33:00,VALID,916.685,VALID,0,VALID,98.9703,VALID,0.101885,VALID,20.4057,VALID,86,VALID,0.8875,
2001-04-26, 00:34:00,VALID,916.697,VALID,0,VALID,98.9232,VALID,0.101885,VALID,20.354,VALID,95,VALID,0.951069,
2001-04-26, 00:35:00,VALID,916.7,VALID,0,VALID,98.9219,VALID,0.101885,VALID,20.3446,VALID,98,VALID,0.71543,
2001-04-26, 00:36:00,VALID,916.686,VALID,0,VALID,98.9334,VALID,0.0849042,VALID,20.3316,VALID,104,VALID,0.945313,
2001-04-26, 00:37:00,VALID,916.703,VALID,0,VALID,98.955,VALID,0.0849042,VALID,20.3346,VALID,95,VALID,0.979688,
2001-04-26, 00:38:00,VALID,916.724,VALID,0.2,VALID,98.9626,VALID,0.0509425,VALID,20.3227,VALID,99,VALID,1.42866,
2001-04-26, 00:39:00,VALID,916.722,VALID,0,VALID,98.9601,VALID,-0.0169808,VALID,20.32,VALID,105,VALID,1.38809,
2001-04-26, 00:40:00,VALID,916.725,VALID,0,VALID,98.9321,VALID,-0.0169808,VALID,20.2947,VALID,84,VALID,1.51322,
2001-04-26, 00:41:00,VALID,916.745,VALID,0,VALID,98.9359,VALID,-0.0169808,VALID,20.2847,VALID,88,VALID,1.01152,
2001-04-26, 00:42:00,VALID,916.772,VALID,0,VALID,98.9372,VALID,0,VALID,20.2753,VALID,73,VALID,0.992188,
2001-04-26, 00:43:00,VALID,916.766,VALID,0,VALID,98.927,VALID,0,VALID,20.2621,VALID,83,VALID,1.3793,
2001-04-26, 00:44:00,VALID,916.775,VALID,0,VALID,98.9372,VALID,0,VALID,20.2527,VALID,81,VALID,0.9998,
2001-04-26, 00:45:00,VALID,916.784,VALID,0.2,VALID,98.9334,VALID,0,VALID,20.2159,VALID,50,VALID,1.02363,
2001-04-26, 00:46:00,VALID,916.786,VALID,0,VALID,98.894,VALID,-0.0169808,VALID,20.1682,VALID,79,VALID,1.32175,
2001-04-26, 00:47:00,VALID,916.784,VALID,0.2,VALID,98.9308,VALID,0,VALID,20.1972,VALID,80,VALID,0.670508,
2001-04-26, 00:48:00,VALID,916.788,VALID,0,VALID,98.9423,VALID,0,VALID,20.2042,VALID,85,VALID,1.33794,
2001-04-26, 00:49:00,VALID,916.778,VALID,0,VALID,98.9448,VALID,-0.0509425,VALID,20.1945,VALID,90,VALID,1.38691,
2001-04-26, 00:50:00,VALID,916.794,VALID,0.2,VALID,98.9741,VALID,0.0169808,VALID,20.1967,VALID,79,VALID,1.07031,
2001-04-26, 00:51:00,VALID,916.807,VALID,0,VALID,98.9626,VALID,0,VALID,20.1848,VALID,62,VALID,0.561523,
2001-04-26, 00:52:00,VALID,916.815,VALID,0.4,VALID,98.9931,VALID,0,VALID,20.1875,VALID,89,VALID,0.80609,
2001-04-26, 00:53:00,VALID,916.833,VALID,0.2,VALID,98.9919,VALID,0,VALID,20.2007,VALID,71,VALID,0.684766,
2001-04-26, 00:54:00,VALID,916.832,VALID,0,VALID,98.9728,VALID,0,VALID,20.1843,VALID,90,VALID,0.772821,
2001-04-26, 00:55:00,VALID,916.835,VALID,0.2,VALID,98.9652,VALID,-0.0169808,VALID,20.1784,VALID,62,VALID,1.1334,
2001-04-26, 00:56:00,VALID,916.834,VALID,0,VALID,98.9779,VALID,0,VALID,20.1582,VALID,69,VALID,0.593149,
2001-04-26, 00:57:00,VALID,916.838,VALID,0,VALID,98.9842,VALID,0.0169808,VALID,20.1483,VALID,70,VALID,0.991406,
2001-04-26, 00:58:00,VALID,916.83,VALID,0,VALID,98.9868,VALID,0,VALID,20.1587,VALID,79,VALID,1.22039,
2001-04-26, 00:59:00,VALID,916.817,VALID,0,VALID,99.0173,VALID,-0.0509425,VALID,20.1816,VALID,98,VALID,0.853906,
2001-04-26, 01:00:00,VALID,916.806,VALID,0.2,VALID,99.0466,VALID,0,VALID,20.1975,VALID,92,VALID,1.27422,
2001-04-26, 01:01:00,VALID,916.796,VALID,0,VALID,99.0148,VALID,-0.0339617,VALID,20.1813,VALID,86,VALID,1.63027,
2001-04-26, 01:02:00,VALID,916.749,VALID,0,VALID,98.9982,VALID,-0.0169808,VALID,20.1523,VALID,63,VALID,1.61349,
2001-04-26, 01:03:00,VALID,916.737,VALID,0,VALID,99.0071,VALID,0,VALID,20.1428,VALID,79,VALID,0.986914,
2001-04-26, 01:04:00,VALID,916.71,VALID,0,VALID,99.0249,VALID,0,VALID,20.1592,VALID,90,VALID,1.24539,
2001-04-26, 01:05:00,VALID,916.692,VALID,0,VALID,99.0364,VALID,-0.0339617,VALID,20.159,VALID,64,VALID,0.855664,
2001-04-26, 01:06:00,VALID,916.662,VALID,0.2,VALID,99.0529,VALID,-0.0169808,VALID,20.159,VALID,90,VALID,1.09169,
2001-04-26, 01:07:00,VALID,916.639,VALID,0,VALID,99.0771,VALID,-0.0169808,VALID,20.198,VALID,94,VALID,0.0757812,
2001-04-26, 01:08:00,VALID,916.609,VALID,0,VALID,99.0834,VALID,-0.0169808,VALID,20.2045,VALID,82,VALID,0.208534,
2001-04-26, 01:09:00,VALID,916.582,VALID,0,VALID,99.0733,VALID,-0.0509425,VALID,20.1913,VALID,83,VALID,1.05879,
2001-04-26, 01:10:00,VALID,916.571,VALID,0,VALID,99.072,VALID,-0.0169808,VALID,20.1851,VALID,88,VALID,0.419408,
2001-04-26, 01:11:00,VALID,916.552,VALID,0.2,VALID,99.0961,VALID,-0.0679233,VALID,20.2303,VALID,95,VALID,0.203711,
2001-04-26, 01:12:00,VALID,916.545,VALID,0,VALID,99.105,VALID,0,VALID,20.2432,VALID,95,VALID,0.827925,
2001-04-26, 01:13:00,VALID,916.514,VALID,0,VALID,99.0809,VALID,-0.0169808,VALID,20.2238,VALID,89,VALID,1.87109,
2001-04-26, 01:14:00,VALID,916.498,VALID,0,VALID,99.0669,VALID,0,VALID,20.2017,VALID,78,VALID,0.637541,
2001-04-26, 01:15:00,VALID,916.501,VALID,0,VALID,99.0542,VALID,0,VALID,20.1619,VALID,80,VALID,1.28457,
2001-04-26, 01:16:00,VALID,916.488,VALID,0,VALID,99.0669,VALID,-0.0339617,VALID,20.146,VALID,98,VALID,1.00601,
2001-04-26, 01:17:00,VALID,916.468,VALID,0.2,VALID,99.058,VALID,-0.0169808,VALID,20.1262,VALID,73,VALID,1.65098,
2001-04-26, 01:18:00,VALID,916.447,VALID,0,VALID,99.0516,VALID,-0.0169808,VALID,20.1073,VALID,65,VALID,1.3456,
2001-04-26, 01:19:00,VALID,916.445,VALID,0,VALID,99.0733,VALID,-0.0509425,VALID,20.1272,VALID,89,VALID,1.0125,
2001-04-26, 01:20:00,VALID,916.431,VALID,0,VALID,99.0872,VALID,-0.0339617,VALID,20.1364,VALID,65,VALID,0.903446,
2001-04-26, 01:21:00,VALID,916.416,VALID,0,VALID,99.086,VALID,-0.0169808,VALID,20.1272,VALID,100,VALID,0.588477,
2001-04-26, 01:22:00,VALID,916.405,VALID,0,VALID,99.1089,VALID,-0.0849042,VALID,20.1364,VALID,105,VALID,0.0197368,
2001-04-26, 01:23:00,VALID,916.385,VALID,0.2,VALID,99.1228,VALID,-0.0169808,VALID,20.1659,VALID,104,VALID,0.0957031,
2001-04-26, 01:24:00,VALID,916.367,VALID,0,VALID,99.1496,VALID,-0.0339617,VALID,20.195,VALID,91,VALID,0.481771,
2001-04-26, 01:25:00,VALID,916.364,VALID,0,VALID,99.1381,VALID,-0.0509425,VALID,20.1888,VALID,88,VALID,1.04297,
2001-04-26, 01:26:00,VALID,916.339,VALID,0,VALID,99.133,VALID,-0.0679233,VALID,20.1687,VALID,84,VALID,0.332442,
2001-04-26, 01:27:00,VALID,916.321,VALID,0,VALID,99.1152,VALID,0,VALID,20.1721,VALID,73,VALID,0.928711,
2001-04-26, 01:28:00,VALID,916.299,VALID,0,VALID,99.1254,VALID,-0.0339617,VALID,20.1657,VALID,83,VALID,1.02404,
2001-04-26, 01:29:00,VALID,916.281,VALID,0.2,VALID,99.1089,VALID,0,VALID,20.1401,VALID,72,VALID,1.18027,
2001-04-26, 01:30:00,VALID,916.275,VALID,0,VALID,99.1076,VALID,-0.0169808,VALID,20.1006,VALID,80,VALID,1.18195,
2001-04-26, 01:31:00,VALID,916.264,VALID,0,VALID,99.1114,VALID,-0.0169808,VALID,20.108,VALID,64,VALID,0.937109,
2001-04-26, 01:32:00,VALID,916.237,VALID,0,VALID,99.0974,VALID,-0.0169808,VALID,20.0909,VALID,91,VALID,1.38542,
2001-04-26, 01:33:00,VALID,916.219,VALID,0,VALID,99.1178,VALID,-0.0169808,VALID,20.1073,VALID,84,VALID,0.80918,
2001-04-26, 01:34:00,VALID,916.219,VALID,0,VALID,99.1394,VALID,-0.0169808,VALID,20.1299,VALID,88,VALID,0.500617,
2001-04-26, 01:35:00,VALID,916.206,VALID,0,VALID,99.1483,VALID,-0.0339617,VALID,20.1625,VALID,85,VALID,0.616602,
2001-04-26, 01:36:00,VALID,916.188,VALID,0.2,VALID,99.1585,VALID,-0.0169808,VALID,20.1689,VALID,100,VALID,0.523438,
2001-04-26, 01:37:00,VALID,916.179,VALID,0,VALID,99.1546,VALID,-0.0169808,VALID,20.1684,VALID,105,VALID,0.327148,
2001-04-26, 01:38:00,VALID,916.161,VALID,0,VALID,99.1585,VALID,0.0169808,VALID,20.1676,VALID,99,VALID,0.66324,
2001-04-26, 01:39:00,VALID,916.135,VALID,0,VALID,99.1775,VALID,-0.0169808,VALID,20.2174,VALID,100,VALID,1.05273,
2001-04-26, 01:40:00,VALID,916.107,VALID,0,VALID,99.1381,VALID,-0.0509425,VALID,20.1883,VALID,83,VALID,0.945112,
2001-04-26, 01:41:00,VALID,916.068,VALID,0,VALID,99.1419,VALID,0,VALID,20.1587,VALID,99,VALID,0.851367,
2001-04-26, 01:42:00,VALID,916.063,VALID,0.2,VALID,99.1356,VALID,0,VALID,20.1619,VALID,95,VALID,1.62294,
2001-04-26, 01:43:00,VALID,916.034,VALID,0,VALID,99.1203,VALID,-0.0169808,VALID,20.1396,VALID,77,VALID,1.67793,
2001-04-26, 01:44:00,VALID,916.022,VALID,0,VALID,99.0796,VALID,-0.0339617,VALID,20.0715,VALID,77,VALID,1.91847,
2001-04-26, 01:45:00,VALID,915.988,VALID,0,VALID,99.0872,VALID,-0.0169808,VALID,20.0685,VALID,82,VALID,1.76914,
2001-04-26, 01:46:00,VALID,915.971,VALID,0,VALID,99.0898,VALID,0,VALID,20.0817,VALID,96,VALID,1.75452,
2001-04-26, 01:47:00,VALID,915.963,VALID,0,VALID,99.0974,VALID,-0.0339617,VALID,20.0911,VALID,88,VALID,1.34648,
2001-04-26, 01:48:00,VALID,915.975,VALID,0.2,VALID,99.1012,VALID,-0.0339617,VALID,20.0879,VALID,88,VALID,0.792869,
2001-04-26, 01:49:00,VALID,915.949,VALID,0,VALID,99.105,VALID,-0.0169808,VALID,20.0814,VALID,89,VALID,0.548047,
2001-04-26, 01:50:00,VALID,915.958,VALID,0,VALID,99.1127,VALID,-0.0339617,VALID,20.1078,VALID,105,VALID,0.665913,
2001-04-26, 01:51:00,VALID,915.928,VALID,0,VALID,99.1292,VALID,-0.0169808,VALID,20.1172,VALID,73,VALID,0.955664,
2001-04-26, 01:52:00,VALID,915.928,VALID,0.2,VALID,99.0936,VALID,-0.0339617,VALID,20.0817,VALID,54,VALID,0.559295,
2001-04-26, 01:53:00,VALID,915.929,VALID,0,VALID,99.0771,VALID,-0.0509425,VALID,20.0725,VALID,88,VALID,0.557031,
2001-04-26, 01:54:00,VALID,915.928,VALID,0,VALID,99.0961,VALID,-0.0849042,VALID,20.0894,VALID,96,VALID,0.858964,
2001-04-26, 01:55:00,VALID,915.898,VALID,0,VALID,99.0796,VALID,-0.101885,VALID,20.0765,VALID,87,VALID,0.830664,
2001-04-26, 01:56:00,VALID,915.897,VALID,0.2,VALID,99.1025,VALID,-0.0849042,VALID,20.0892,VALID,106,VALID,0.889423,
2001-04-26, 01:57:00,VALID,915.888,VALID,0,VALID,99.1152,VALID,-0.101885,VALID,20.1115,VALID,107,VALID,0.364258,
2001-04-26, 01:58:00,VALID,915.873,VALID,0,VALID,99.1101,VALID,-0.101885,VALID,20.0886,VALID,99,VALID,0,
2001-04-26, 01:59:00,VALID,915.874,VALID,0,VALID,99.1025,VALID,-0.101885,VALID,20.076,VALID,98,VALID,0.00664063,
2001-04-26, 02:00:00,VALID,915.858,VALID,0.2,VALID,99.1038,VALID,-0.101885,VALID,20.0897,VALID,95,VALID,0.0576923,
2001-04-26, 02:01:00,VALID,915.843,VALID,0,VALID,99.0949,VALID,-0.118866,VALID,20.0924,VALID,94,VALID,0.0507813,
2001-04-26, 02:02:00,VALID,915.825,VALID,0,VALID,99.0618,VALID,-0.118866,VALID,20.0601,VALID,330,VALID,0.067023,
2001-04-26, 02:03:00,VALID,915.815,VALID,0,VALID,99.0555,VALID,-0.101885,VALID,20.0539,VALID,306,VALID,0,
2001-04-26, 02:04:00,VALID,915.789,VALID,0,VALID,99.0567,VALID,-0.101885,VALID,20.0437,VALID,317,VALID,0.00540865,
2001-04-26, 02:05:00,VALID,915.784,VALID,0.2,VALID,99.0834,VALID,-0.101885,VALID,20.0864,VALID,63,VALID,0.518555,
2001-04-26, 02:06:00,VALID,915.758,VALID,0,VALID,99.0898,VALID,-0.0849042,VALID,20.0994,VALID,121,VALID,0.300987,
2001-04-26, 02:07:00,VALID,915.742,VALID,0,VALID,99.0809,VALID,-0.101885,VALID,20.0832,VALID,84,VALID,0.219336,
2001-04-26, 02:08:00,VALID,915.73,VALID,0,VALID,99.0783,VALID,-0.118866,VALID,20.0832,VALID,88,VALID,0.147837,
2001-04-26, 02:09:00,VALID,915.704,VALID,0.2,VALID,99.0707,VALID,-0.101885,VALID,20.0633,VALID,78,VALID,0.535352,
2001-04-26, 02:10:00,VALID,915.715,VALID,0,VALID,99.0669,VALID,-0.101885,VALID,20.0477,VALID,31,VALID,0.127878,
2001-04-26, 02:11:00,VALID,915.688,VALID,0,VALID,99.0605,VALID,-0.101885,VALID,20.0477,VALID,37,VALID,0.354883,
2001-04-26, 02:12:00,VALID,915.679,VALID,0,VALID,99.0796,VALID,-0.118866,VALID,20.0832,VALID,94,VALID,1.1234,
2001-04-26, 02:13:00,VALID,915.669,VALID,0.2,VALID,99.0809,VALID,-0.101885,VALID,20.0862,VALID,95,VALID,1.45137,
2001-04-26, 02:14:00,VALID,915.676,VALID,0,VALID,99.0834,VALID,-0.101885,VALID,20.1026,VALID,92,VALID,0.909539,
2001-04-26, 02:15:00,VALID,915.672,VALID,0,VALID,99.0631,VALID,-0.0849042,VALID,20.0733,VALID,69,VALID,0.727734,
2001-04-26, 02:16:00,VALID,915.683,VALID,0,VALID,99.0707,VALID,-0.118866,VALID,20.0735,VALID,96,VALID,0.488982,
2001-04-26, 02:17:00,VALID,915.671,VALID,0,VALID,99.0783,VALID,-0.101885,VALID,20.073,VALID,107,VALID,0.102344,
2001-04-26, 02:18:00,VALID,915.668,VALID,0.2,VALID,99.086,VALID,-0.0849042,VALID,20.0827,VALID,98,VALID,0.474095,
2001-04-26, 02:19:00,VALID,915.67,VALID,0,VALID,99.1139,VALID,-0.118866,VALID,20.1056,VALID,95,VALID,0.860352,
2001-04-26, 02:20:00,VALID,915.664,VALID,0,VALID,99.0771,VALID,-0.101885,VALID,20.0862,VALID,80,VALID,0.779848,
2001-04-26, 02:21:00,VALID,915.668,VALID,0,VALID,99.0898,VALID,-0.135847,VALID,20.0867,VALID,98,VALID,0.94375,
2001-04-26, 02:22:00,VALID,915.662,VALID,0.2,VALID,99.0694,VALID,-0.101885,VALID,20.0636,VALID,74,VALID,1.3641,
2001-04-26, 02:23:00,VALID,915.655,VALID,0,VALID,99.0529,VALID,-0.0679233,VALID,20.0337,VALID,45,VALID,0.813281,
2001-04-26, 02:24:00,VALID,915.66,VALID,0,VALID,99.0338,VALID,0.0169808,VALID,19.9875,VALID,50,VALID,0.784455,
2001-04-26, 02:25:00,VALID,915.656,VALID,0,VALID,99.0529,VALID,0,VALID,20.0036,VALID,85,VALID,0.956055,
2001-04-26, 02:26:00,VALID,915.651,VALID,0,VALID,99.0593,VALID,0.0169808,VALID,20.0171,VALID,77,VALID,0.472451,
2001-04-26, 02:27:00,VALID,915.651,VALID,0,VALID,99.0694,VALID,0,VALID,20.0039,VALID,57,VALID,0.756836,
2001-04-26, 02:28:00,VALID,915.651,VALID,0.2,VALID,99.0618,VALID,0,VALID,19.9875,VALID,67,VALID,0.791066,
2001-04-26, 02:29:00,VALID,915.66,VALID,0,VALID,99.0745,VALID,0,VALID,19.9974,VALID,74,VALID,0.773047,
2001-04-26, 02:30:00,VALID,915.664,VALID,0,VALID,99.0783,VALID,0,VALID,19.9974,VALID,79,VALID,0.697163,
2001-04-26, 02:31:00,VALID,915.672,VALID,0,VALID,99.1038,VALID,0,VALID,20.0071,VALID,77,VALID,0.236719,
2001-04-26, 02:32:00,VALID,915.667,VALID,0,VALID,99.1038,VALID,0,VALID,20.0332,VALID,80,VALID,0.313502,
2001-04-26, 02:33:00,VALID,915.68,VALID,0,VALID,99.1139,VALID,0,VALID,20.0233,VALID,84,VALID,0.527148,
2001-04-26, 02:34:00,VALID,915.697,VALID,0,VALID,99.1076,VALID,0,VALID,20.0233,VALID,89,VALID,0.603413,
2001-04-26, 02:35:00,VALID,915.693,VALID,0,VALID,99.1267,VALID,0,VALID,20.0297,VALID,86,VALID,0.45,
2001-04-26, 02:36:00,VALID,915.693,VALID,0.2,VALID,99.1267,VALID,-0.0169808,VALID,20.0494,VALID,77,VALID,0.530048,
2001-04-26, 02:37:00,VALID,915.697,VALID,0,VALID,99.1203,VALID,0,VALID,20.0394,VALID,78,VALID,0.575586,
2001-04-26, 02:38:00,VALID,915.689,VALID,0,VALID,99.1165,VALID,0,VALID,20.0297,VALID,77,VALID,0.529194,
2001-04-26, 02:39:00,VALID,915.678,VALID,0,VALID,99.1267,VALID,0,VALID,20.0365,VALID,78,VALID,0.473437,
2001-04-26, 02:40:00,VALID,915.674,VALID,0,VALID,99.1152,VALID,0,VALID,20.0168,VALID,80,VALID,0.89383,
2001-04-26, 02:41:00,VALID,915.659,VALID,0,VALID,99.1076,VALID,0,VALID,20.0106,VALID,77,VALID,0.516211,
2001-04-26, 02:42:00,VALID,915.648,VALID,0.2,VALID,99.1178,VALID,-0.0169808,VALID,20.0104,VALID,89,VALID,0.806332,
2001-04-26, 02:43:00,VALID,915.65,VALID,0,VALID,99.1063,VALID,0,VALID,19.9907,VALID,74,VALID,1.00117,
2001-04-26, 02:44:00,VALID,915.629,VALID,0,VALID,99.1012,VALID,-0.0339617,VALID,19.9753,VALID,82,VALID,0.770833,
2001-04-26, 02:45:00,VALID,915.644,VALID,0,VALID,99.1279,VALID,-0.0339617,VALID,19.9877,VALID,88,VALID,0.384961,
2001-04-26, 02:46:00,VALID,915.638,VALID,0,VALID,99.1445,VALID,0,VALID,20.0141,VALID,97,VALID,1.14001,
2001-04-26, 02:47:00,VALID,915.62,VALID,0,VALID,99.1521,VALID,0,VALID,20.033,VALID,91,VALID,0.779102,
2001-04-26, 02:48:00,VALID,915.617,VALID,0.2,VALID,99.1635,VALID,0,VALID,20.0459,VALID,77,VALID,0.435897,
2001-04-26, 02:49:00,VALID,915.596,VALID,0,VALID,99.1356,VALID,-0.0339617,VALID,20.02,VALID,80,VALID,0.578906,
2001-04-26, 02:50:00,VALID,915.6,VALID,0,VALID,99.1432,VALID,0,VALID,20.0138,VALID,73,VALID,0.61102,
2001-04-26, 02:51:00,VALID,915.581,VALID,0,VALID,99.1496,VALID,-0.0169808,VALID,20.0111,VALID,85,VALID,0.627734,
2001-04-26, 02:52:00,VALID,915.571,VALID,0,VALID,99.1496,VALID,-0.0339617,VALID,20.0076,VALID,56,VALID,0.309095,
2001-04-26, 02:53:00,VALID,915.561,VALID,0,VALID,99.147,VALID,-0.0339617,VALID,20.0012,VALID,95,VALID,1.1238,
2001-04-26, 02:54:00,VALID,915.554,VALID,0.2,VALID,99.1305,VALID,-0.0169808,VALID,19.9818,VALID,93,VALID,1.12706,
2001-04-26, 02:55:00,VALID,915.556,VALID,0,VALID,99.147,VALID,-0.0169808,VALID,19.9922,VALID,93,VALID,0.889453,
2001-04-26, 02:56:00,VALID,915.552,VALID,0,VALID,99.161,VALID,-0.0169808,VALID,20.0009,VALID,88,VALID,0.86258,
2001-04-26, 02:57:00,VALID,915.556,VALID,0,VALID,99.1737,VALID,-0.0339617,VALID,20.0079,VALID,76,VALID,0.818164,
2001-04-26, 02:58:00,VALID,915.551,VALID,0,VALID,99.1585,VALID,-0.0509425,VALID,19.989,VALID,65,VALID,0.513569,
2001-04-26, 02:59:00,VALID,915.549,VALID,0.2,VALID,99.1661,VALID,-0.0169808,VALID,20.0049,VALID,89,VALID,0.622656,
2001-04-26, 03:00:00,VALID,915.549,VALID,0,VALID,99.1712,VALID,-0.0339617,VALID,20.0111,VALID,81,VALID,0.832933,
2001-04-26, 03:01:00,VALID,915.554,VALID,0,VALID,99.1635,VALID,-0.0339617,VALID,19.9853,VALID,75,VALID,0.599609,
2001-04-26, 03:02:00,VALID,915.55,VALID,0,VALID,99.1674,VALID,0,VALID,19.9882,VALID,80,VALID,0.436472,
2001-04-26, 03:03:00,VALID,915.548,VALID,0.2,VALID,99.1635,VALID,-0.0339617,VALID,19.9848,VALID,71,VALID,1.12168,
2001-04-26, 03:04:00,VALID,915.546,VALID,0,VALID,99.1546,VALID,-0.0169808,VALID,19.9522,VALID,89,VALID,1.04627,
2001-04-26, 03:05:00,VALID,915.545,VALID,0,VALID,99.1623,VALID,-0.0509425,VALID,19.953,VALID,92,VALID,1.16719,
2001-04-26, 03:06:00,VALID,915.544,VALID,0,VALID,99.1826,VALID,-0.0679233,VALID,19.9855,VALID,95,VALID,0.994038,
2001-04-26, 03:07:00,VALID,915.534,VALID,0,VALID,99.1852,VALID,-0.0169808,VALID,19.9783,VALID,92,VALID,0.831641,
2001-04-26, 03:08:00,VALID,915.542,VALID,0,VALID,99.1915,VALID,0,VALID,19.9882,VALID,101,VALID,0.487179,
2001-04-26, 03:09:00,VALID,915.532,VALID,0.2,VALID,99.203,VALID,0,VALID,19.991,VALID,87,VALID,0.505078,
2001-04-26, 03:10:00,VALID,915.522,VALID,0,VALID,99.203,VALID,-0.0509425,VALID,20.0046,VALID,102,VALID,0.222245,
2001-04-26, 03:11:00,VALID,915.519,VALID,0,VALID,99.2106,VALID,0,VALID,20.0203,VALID,114,VALID,0.141602,
2001-04-26, 03:12:00,VALID,915.524,VALID,0,VALID,99.2093,VALID,0,VALID,20.0335,VALID,108,VALID,0.629607,
2001-04-26, 03:13:00,VALID,915.518,VALID,0,VALID,99.1991,VALID,0,VALID,20.0041,VALID,94,VALID,0.819727,
2001-04-26, 03:14:00,VALID,915.524,VALID,0.2,VALID,99.1902,VALID,0,VALID,20.0041,VALID,117,VALID,1.18092,
2001-04-26, 03:15:00,VALID,915.527,VALID,0,VALID,99.1941,VALID,0,VALID,19.9845,VALID,112,VALID,1.1252,
2001-04-26, 03:16:00,VALID,915.529,VALID,0,VALID,99.1813,VALID,-0.0169808,VALID,19.9621,VALID,96,VALID,0.9377,
2001-04-26, 03:17:00,VALID,915.532,VALID,0,VALID,99.1775,VALID,-0.0169808,VALID,19.9497,VALID,100,VALID,1.04004,
2001-04-26, 03:18:00,VALID,915.538,VALID,0,VALID,99.1928,VALID,-0.0169808,VALID,19.9455,VALID,100,VALID,0.73602,
2001-04-26, 03:19:00,VALID,915.542,VALID,0,VALID,99.2157,VALID,0.0169808,VALID,19.9882,VALID,106,VALID,0.561523,
2001-04-26, 03:20:00,VALID,915.548,VALID,0.2,VALID,99.2169,VALID,-0.0339617,VALID,20.0007,VALID,89,VALID,0.556691,
2001-04-26, 03:21:00,VALID,915.55,VALID,0,VALID,99.1979,VALID,-0.0169808,VALID,19.9915,VALID,103,VALID,0.88457,
2001-04-26, 03:22:00,VALID,915.548,VALID,0,VALID,99.1979,VALID,-0.0339617,VALID,19.9694,VALID,99,VALID,0.905633,
2001-04-26, 03:23:00,VALID,915.543,VALID,0,VALID,99.1826,VALID,0.0509425,VALID,19.9323,VALID,110,VALID,0.943945,
2001-04-26, 03:24:00,VALID,915.541,VALID,0,VALID,99.2004,VALID,0.0679233,VALID,19.9415,VALID,95,VALID,0.886819,
2001-04-26, 03:25:00,VALID,915.539,VALID,0.2,VALID,99.203,VALID,0.0849042,VALID,19.9514,VALID,79,VALID,0.903906,
2001-04-26, 03:26:00,VALID,915.526,VALID,0,VALID,99.1953,VALID,0.0849042,VALID,19.9452,VALID,98,VALID,0.524465,
2001-04-26, 03:27:00,VALID,915.523,VALID,0,VALID,99.2004,VALID,0.101885,VALID,19.9514,VALID,105,VALID,0.267773,
2001-04-26, 03:28:00,VALID,915.52,VALID,0,VALID,99.1979,VALID,0.0679233,VALID,19.9512,VALID,96,VALID,0.770833,
2001-04-26, 03:29:00,VALID,915.512,VALID,0,VALID,99.189,VALID,0.0679233,VALID,19.9353,VALID,102,VALID,0.80957,
2001-04-26, 03:30:00,VALID,915.505,VALID,0.2,VALID,99.1991,VALID,0.0509425,VALID,19.9251,VALID,95,VALID,0.741776,
2001-04-26, 03:31:00,VALID,915.492,VALID,0,VALID,99.2055,VALID,0.101885,VALID,19.9415,VALID,104,VALID,0.425586,
2001-04-26, 03:32:00,VALID,915.487,VALID,0,VALID,99.1991,VALID,0.0849042,VALID,19.9383,VALID,107,VALID,0.648237,
2001-04-26, 03:33:00,VALID,915.468,VALID,0,VALID,99.2106,VALID,0.101885,VALID,19.9321,VALID,107,VALID,0.391016,